CAPE
0 0 0 0 0 0 0 0 0 2 0 0 0 0 100 432 571 1114 882 683 571 569 599 483 283 446 587 909 1153 1316 1353 1706
0 0 0 0 0 0 0 0 16 42 0 0 0 3 65 374 485 930 885 751 574 456 466 472 348 323 482 671 995 1386 1426 1656
0 0 0 0 0 0 0 2 6 11 14 4 0 0 20 57 459 813 899 877 627 529 477 519 482 465 512 873 1063 1326 1498 1519
0 0 0 0 0 0 0 2 4 0 0 0 8 33 48 116 483 689 911 942 633 517 522 574 607 525 608 845 1350 1496 1554 1854
0 0 0 0 0 0 0 0 0 0 0 66 170 211 285 508 603 832 1028 965 568 428 692 1042 1181 1199 1535 1797 1724 1710 1887 2092
0 0 0 0 0 0 0 0 6 14 0 7 9 79 391 723 759 865 1183 1062 712 633 941 1303 1584 1874 1996 2121 2000 1890 1958 2169
0 0 0 0 0 0 0 0 0 1 2 12 57 548 564 775 1027 850 935 1231 1067 708 1078 1479 1862 2120 2223 2179 2123 1823 2072 2311
0 0 0 0 0 0 0 0 0 0 0 2 621 818 738 903 1124 1192 804 1223 1239 1130 1140 1680 2102 2285 2452 2462 2618 2387 2497 2121
0 0 0 0 0 0 0 0 0 0 6 567 470 785 954 876 1150 1332 1399 1302 1366 1324 1665 1925 2180 2369 2494 2143 1943 1942 1696 1273
0 0 0 0 0 0 0 0 0 0 23 398 734 997 1001 921 1056 1315 1523 1557 1540 1535 1820 2154 2207 2158 2016 1711 1130 1021 793 678
0 0 0 1 8 0 0 0 0 2 83 613 776 793 1007 909 870 1243 1474 1868 1851 1742 2103 2061 1920 1967 1679 1081 637 542 295 157
136 6 9 39 188 444 438 12 338 541 375 746 888 590 1013 784 926 1186 1483 1956 2092 1956 1973 1750 1631 1553 1074 493 98 0 0 3
282 208 173 186 597 756 70 293 1077 1007 1052 1045 943 1165 1077 821 1008 1159 1521 1889 1893 1780 1692 1556 1149 974 590 187 35 74 91 40
206 244 323 768 673 555 828 719 949 1118 1261 1235 1224 937 961 1120 1436 1570 1724 1814 1722 1649 1573 1319 978 720 587 474 434 206 10 0
700 780 1001 998 1085 881 612 806 778 866 867 1241 1141 1049 1067 1350 1462 1671 1801 1544 1637 1691 1573 1156 1037 714 654 712 291 40 4 2
785 964 1044 931 767 649 580 677 730 866 909 832 1031 1000 1178 1284 1483 1696 1654 1757 1482 1472 1202 1102 845 893 879 291 55 11 5 3
699 999 846 682 691 729 669 699 751 903 1134 1056 868 1059 1230 1427 1694 1727 1540 1514 1614 1549 1170 976 1001 926 840 341 22 17 5 3
931 936 1105 859 695 570 536 513 582 667 942 1396 1031 986 1163 1425 1794 1864 1876 1821 1830 1731 1586 889 847 813 457 198 35 5 5 3
1245 1048 1082 618 452 462 364 109 134 116 396 499 1345 1606 1666 1910 1941 1784 1734 1785 1718 1647 1454 786 684 458 344 186 284 17 4 5
CIN
0 0 0 0 0 -1 0 -1 -1 -1 0 0 0 0 -27 -44 -42 -45 -72 -71 -81 -87 -75 -83 -96 -43 -20 -4 -1 -2 -2 -1
0 0 0 0 0 0 -1 0 -5 -4 -1 0 0 -2 -8 -19 -37 -47 -71 -73 -72 -88 -81 -75 -69 -56 -32 -20 -6 -2 -1 -1
0 0 0 0 0 0 0 -2 -4 -5 -4 -6 0 0 -20 -21 -42 -57 -77 -55 -62 -73 -83 -72 -53 -40 -33 -19 -6 -1 -2 -2
0 0 0 0 0 -2 0 -8 -45 0 0 0 -17 -27 -43 -36 -46 -78 -68 -42 -61 -78 -80 -76 -63 -56 -62 -35 -8 -2 -9 -6
0 0 0 0 0 0 0 0 0 0 0 -25 -20 -40 -45 -76 -83 -99 -80 -62 -80 -88 -65 -53 -41 -31 -15 -8 -6 -2 -3 -1
0 0 0 0 0 0 0 0 -3 -21 0 -7 -9 -21 -35 -71 -104 -119 -108 -80 -78 -88 -53 -42 -37 -21 -6 -2 -3 -2 -1 -2
0 0 0 0 0 0 0 0 0 -1 -2 -5 -5 -40 -80 -56 -96 -115 -109 -74 -56 -83 -57 -33 -22 -13 -4 -3 -12 -14 -3 -1
0 0 0 0 0 0 0 0 0 0 0 0 -49 -110 -123 -106 -98 -116 -117 -86 -70 -73 -54 -28 -23 -19 -3 -3 -7 -15 -11 -25
0 0 0 0 0 0 0 0 0 0 -1 -45 -51 -47 -83 -113 -122 -116 -105 -90 -80 -64 -45 -31 -35 -34 -18 -42 -52 -35 -38 -59
0 0 0 0 0 0 0 0 0 0 -8 -51 -86 -91 -142 -156 -116 -127 -112 -90 -73 -52 -50 -58 -59 -57 -51 -88 -146 -123 -121 -100
0 0 0 -4 -43 0 0 0 0 -14 -22 -61 -79 -96 -94 -183 -220 -201 -158 -99 -80 -73 -88 -109 -111 -97 -121 -153 -171 -117 -152 -176
-11 -6 -4 -5 -36 -84 -38 -6 -13 -47 -31 -59 -86 -28 -47 -226 -250 -220 -205 -145 -139 -133 -126 -137 -132 -131 -175 -246 -305 -56 -2 -92
-8 -6 -5 -75 -138 -152 -25 -35 -157 -120 -83 -99 -69 -116 -223 -295 -297 -273 -223 -190 -189 -188 -170 -148 -189 -175 -189 -273 -320 -222 -188 -175
-8 -4 -4 -149 -165 -56 -180 -243 -231 -201 -188 -159 -167 -215 -246 -257 -251 -238 -213 -186 -176 -174 -154 -158 -177 -179 -157 -137 -101 -134 -276 0
-8 -18 -176 -196 -191 -277 -256 -203 -220 -214 -214 -178 -164 -169 -176 -170 -181 -187 -180 -230 -186 -131 -119 -142 -115 -141 -104 -60 -130 -189 0 0
-47 -69 -93 -139 -194 -218 -243 -207 -190 -168 -159 -173 -123 -136 -126 -138 -128 -143 -172 -139 -188 -151 -157 -127 -126 -61 -12 -128 -200 -198 -146 0
-35 -60 -114 -150 -148 -154 -179 -157 -134 -111 -96 -99 -108 -90 -83 -87 -89 -103 -159 -156 -119 -97 -140 -133 -86 -49 -13 -89 -193 -161 0 0
-3 -28 -20 -91 -144 -149 -137 -140 -126 -104 -58 -70 -87 -69 -66 -59 -57 -64 -54 -62 -46 -38 -45 -132 -120 -71 -93 -128 -197 0 0 0
-13 -36 -23 -103 -133 -127 -124 -195 -182 -184 -123 -86 -62 -36 -24 -21 -48 -69 -69 -49 -38 -30 -49 -143 -142 -194 -165 -169 -72 -149 0 0
Wind_Speed
4 5 5 0 3 9 18 14 18 15 22 19 23 18 10 16 16 11 9 6 6 6 8 9 16 18 16 16 19 18 15 13
8 4 6 10 7 5 4 19 22 22 25 22 20 23 18 15 12 10 7 6 6 4 7 8 14 15 15 13 12 11 11 12
2 12 10 6 5 6 23 19 26 28 22 22 20 25 26 22 10 7 5 5 3 3 6 7 10 9 10 10 9 12 10 9
7 5 9 7 13 9 6 8 11 25 28 20 21 25 26 28 13 7 4 1 1 2 4 7 10 11 13 14 13 10 6 5
5 6 9 8 7 11 13 21 23 31 24 18 20 24 25 26 11 8 10 9 3 2 3 8 14 15 14 14 14 10 8 5
10 10 9 11 10 14 12 10 4 4 15 27 25 24 25 19 11 9 12 12 7 8 9 11 12 11 12 14 13 11 10 9
18 22 19 22 12 13 12 12 27 23 29 26 26 26 27 18 10 7 9 13 14 11 10 10 11 11 11 11 12 11 10 8
17 20 21 22 25 20 9 13 18 26 29 28 24 25 24 16 9 5 9 9 11 15 11 9 10 12 9 8 7 6 5 7
20 21 23 23 27 12 11 9 13 17 16 23 26 26 24 18 7 4 5 13 14 14 12 14 14 12 10 8 5 3 1 1
23 18 21 27 20 15 13 12 13 27 23 28 29 26 24 21 11 7 6 1 8 12 7 5 8 8 6 5 5 4 4 1
21 21 26 20 21 17 18 13 23 34 33 27 25 25 24 19 14 4 3 1 3 5 4 4 5 6 6 6 5 3 2 2
20 26 28 26 13 16 17 28 19 25 27 22 21 24 17 20 17 13 10 6 4 3 3 2 3 5 7 6 6 6 6 10
28 30 28 19 17 16 22 21 20 20 21 20 19 23 24 23 18 15 10 8 4 2 1 1 2 3 4 4 4 6 11 10
28 38 32 18 19 22 20 19 19 20 21 21 20 21 20 18 16 13 11 10 5 4 3 1 2 4 3 4 5 8 8 6
26 25 21 20 22 19 19 20 21 22 22 21 18 17 17 15 14 13 12 10 9 8 6 2 2 4 3 2 3 4 5 5
25 23 22 22 20 19 20 21 21 22 22 20 17 18 18 17 16 15 15 13 11 9 8 6 2 0 1 2 2 3 4 4
23 22 19 18 16 16 16 17 18 19 20 20 19 19 19 20 21 18 16 14 10 10 10 8 4 1 1 2 1 2 3 2
20 14 21 14 15 14 14 15 17 18 18 18 19 20 21 21 20 18 16 12 11 13 12 8 4 2 3 1 2 2 1 0
18 15 14 9 11 13 14 16 17 18 19 18 18 20 19 18 18 17 16 14 12 13 12 9 5 4 4 2 1 1 1 1
Wind_Direction
203 209 191 320 220 320 314 331 326 335 332 339 324 339 8 347 341 343 334 4 14 49 92 98 129 136 128 126 136 134 127 119
189 214 214 294 310 312 307 312 312 325 323 331 329 317 347 353 352 348 336 340 351 16 87 102 121 126 128 120 118 113 113 112
232 189 190 236 243 298 299 313 306 308 325 332 325 303 315 339 2 7 338 310 13 17 92 97 109 108 112 110 104 114 108 93
211 242 252 240 198 209 281 312 328 311 314 328 325 300 301 312 0 33 64 316 356 40 91 100 105 107 111 115 113 105 92 71
256 255 263 240 251 286 294 300 300 290 320 344 335 304 306 319 23 68 109 120 109 131 123 114 118 119 117 119 119 108 100 80
258 248 245 228 249 274 273 216 294 315 339 313 313 302 303 338 21 90 126 126 118 128 131 129 128 123 122 123 117 109 108 97
279 283 280 272 247 221 226 214 221 251 286 308 311 304 297 329 7 75 123 140 138 136 140 140 133 129 127 121 114 109 106 97
280 277 277 275 273 277 223 212 213 222 243 295 311 312 304 318 350 50 133 144 146 144 143 144 142 139 137 132 124 115 106 104
282 279 276 273 267 229 258 243 201 206 297 301 297 302 311 309 343 1 133 151 154 153 147 147 147 147 147 146 132 127 148 10
280 283 275 281 281 255 228 213 199 220 285 286 287 297 300 308 320 321 311 202 159 154 157 158 152 157 158 157 157 150 139 247
276 278 276 289 285 275 272 271 208 232 248 288 294 297 294 310 316 358 57 5 156 159 169 165 174 171 170 171 174 189 189 303
282 276 276 285 291 289 286 269 290 284 284 299 297 286 300 303 305 302 306 318 304 272 264 229 215 181 177 193 195 202 214 266
273 273 276 294 294 291 271 278 296 297 301 300 298 290 293 298 298 300 313 311 335 324 284 226 183 182 202 209 235 289 304 296
274 268 270 292 286 276 286 300 302 304 304 300 300 300 301 306 301 306 313 311 323 326 313 316 159 169 190 236 292 310 323 335
273 280 286 285 284 291 295 293 298 297 301 301 298 303 305 306 308 307 311 316 321 321 326 333 165 155 182 275 331 343 13 31
281 279 281 283 286 292 292 292 297 300 300 302 298 298 297 300 303 302 301 305 310 317 322 318 319 292 53 44 86 88 79 75
280 280 282 285 296 300 296 299 303 308 307 303 298 297 294 293 296 299 300 301 306 309 318 314 324 339 32 18 102 130 122 64
292 295 281 284 288 296 299 306 310 313 319 320 311 301 297 294 294 295 298 301 298 304 313 318 315 319 313 15 135 126 122 67
296 299 298 301 297 301 304 308 311 314 326 327 323 309 304 297 298 296 296 296 302 305 313 315 313 307 302 293 226 196 217 262